Weather Roundup
Issued by NWS Chicago, IL

Home | Current Version | Previous Version | Text Only | Print | Product List | Glossary On
Versions: 1 2 3 4 5 6 7 8 9 10 11 12 13 14 15 16 17 18 19 20 21 22 23 24 25 26 27 28 29 30 31 32 33 34 35 36 37 38 39 40 41 42 43 44 45 46 47 48 49 50
000
NZUS59 KLOT 061710
HRRLOT

CHICAGO AREA WEATHER ROUNDUP
NATIONAL WEATHER SERVICE CHICAGO/ROMEOVILLE IL
1100 AM CST FRI MAR 06 2015

NOTE: "FAIR" INDICATES FEW OR NO CLOUDS BELOW 12,000 FEET WITH NO
SIGNIFICANT WEATHER AND/OR OBSTRUCTIONS TO VISIBILITY.

* THESE STATIONS ARE NOT UNDER NWS QUALITY CONTROL. THEY ALSO MAY NOT
  REPORT WEATHER SUCH AS PRECIPITATION OR FOG.

ILZ005-006-012>014-019>023-061800-
NORTHEAST ILLINOIS

CITY           SKY/WX    TMP DP  RH WIND       PRES   REMARKS
OHARE          PTSUNNY   19   7  59 S18       30.34F WCI   4
MIDWAY         MOSUNNY   19   6  57 S21       30.37F WCI   3
AURORA         SUNNY     18   7  62 S16       30.34F WCI   3
LANSING*       MOSUNNY   16   6  64 S17       30.41F WCI   0
JOLIET*        SUNNY     19   8  61 S15G21    30.38F WCI   5
WAUKEGAN       MOSUNNY   21   7  54 S16       30.29F WCI   7
DUPAGE AIRPORT SUNNY     17   6  62 S18G29    30.33F WCI   1
WHEELING       MOSUNNY   21   6  52 S16       30.34F WCI   7
KANKAKEE*      SUNNY     17   8  67 S16G22    30.42F WCI   2
MORRIS*        PTSUNNY   17  10  73 S17       30.36F WCI   2
LEWIS AIRPORT* SUNNY     18   8  64 S15G24    30.37F WCI   4
NORTHERLY IS     N/A     17   4  56 S15         N/A  WCI   3
$$

WIZ051-052-058>065-066-070>072-061800-
SOUTHEAST WISCONSIN

CITY           SKY/WX    TMP DP  RH WIND       PRES   REMARKS
MILWAUKEE      PTSUNNY   20   5  52 SW21G28   30.27F WCI   4
KENOSHA*       MOSUNNY   20   7  57 S18       30.28F WCI   5
RACINE*        SUNNY     20   6  55 S15G28    30.29F WCI   6
BURLINGTON     MOSUNNY   19   6  59 SW23      30.26F WCI   1
WAUKESHA       SUNNY     19   5  53 S14       30.25F WCI   6
WEST BEND      SUNNY     23   5  46 SW12      30.21F WCI  12
$$

INZ001>003-010>013-019-020-061800-
NORTHWEST INDIANA

CITY           SKY/WX    TMP DP  RH WIND       PRES   REMARKS
GARY*          MOSUNNY  N/A N/A N/A S12G29    30.41F
MICHIGAN CITY* NOT AVBL
RENSSELAER*    NOT AVBL
VALPARAISO     SUNNY     14   3  61 S16G25    30.41F WCI  -2
$$

LMZ740>746-061800-
SOUTHERN LAKE MICHIGAN

STATION/POSITION TIME  SKY/WX   TEMP WIND        PRES    VSBY
                                AIR  DIR/SP/G
                 (UTC)          (F)  (DEG/KT/KT) (MB)    (MI)
HARRISON CRIB    1700            16  200/ 26/ 31   N/A
BURNHAM HARBOR   1700            18  190/ 12/ 19   N/A
CALUMET HARBOR   1700            16  190/ 11/ 18 1027.6F
BURNS HARBOR     NOT AVBL
MICHIGAN CITY    1700            14  170/ 15/ 21   N/A
$$

ABBREVIATIONS USED IN REMARKS
   TC - TEMPERATURE IN CELSIUS
  WCI - WIND CHILL INDEX
   HX - HEAT INDEX
  VSB - VISIBILITY
$$


USA.gov is the U.S. government's official web portal to all federal, state and local government web resources and services.